Location: Morosaglia
(42.4360°N, 9.3069°E)
Time: 02:59:27
(UTC+00:00)

Cosmos 962 Rocket - Pass Details

Date: 07 June 2020
Orbit: 952 x 998 km, 82.9° (Epoch: 06 July)

Event Time Altitude Azimuth Distance (km) Brightness Sun altitude
Exits shadow 01:44:43 20° 182° (S) 2,039 5.7 -16.9°
Maximum altitude 01:49:07 84° 97° (E) 973 4.5 -16.4°
Drops below altitude 10° 01:55:21 10° 9° (N) 2,720 7.8 -15.8°
Sets 01:57:53 0° 9° (N) 3,678 8.7 -15.5°
